FW2479 Weather Reports


time (UTC)temp
C
wind
direction
speed
KPH
gust
KPH
rain 1hr
cm
rain 24hr
cm
rain mn
cm
humidity
%
barometer
mb
20260505025003 13 226 0.0 0.0 0.00 0.00 0.00 68 1010.9
20260505024503 13 226 0.0 0.0 0.00 0.00 0.00 68 1011.0
20260505024003 -17 226 0.0 0.0 0.00 0.00 0.00 1011.0
20260505023727 -17 0.0 0.0 0.00 0.00 0.00 1011.0
20260505023223 13 226 0.0 0.0 0.00 0.00 0.00 66 1011.0
20260505022458 13 226 0.0 0.0 0.00 0.00 0.00 66 1010.9
20260505021959 13 226 0.0 0.0 0.00 0.00 0.00 65 1011.0
20260505021457 13 226 0.0 0.0 0.00 0.00 0.00 65 1011.1
20260505020956 13 278 0.0 0.0 0.00 0.00 0.00 65 1011.1
20260505020454 -17 0.0 0.0 0.00 0.00 0.00 1011.0
20260505015954 13 251 0.0 0.0 0.00 0.00 0.00 63 1011.0
20260505015717 13 251 0.0 0.0 0.00 0.00 0.00 63 1010.9
20260505015003 13 275 0.0 0.0 0.00 0.00 0.00 62 1010.9
20260505014453 13 275 0.0 0.0 0.00 0.00 0.00 62 1011.0
20260505014204 13 230 0.0 0.0 0.00 0.00 0.00 61 1011.0
20260505014154 13 278 0.0 0.0 0.00 0.00 0.00 61 1010.9
20260505012953 13 228 0.0 1.6 0.00 0.00 0.00 61 1010.9
20260505012452 14 228 0.0 1.6 0.00 0.00 0.00 60 1010.8
20260505011953 14 226 0.0 4.8 0.00 0.00 0.00 59 1010.7
20260505011452 14 227 0.0 4.8 0.00 0.00 0.00 59 1010.7
20260505010952 14 212 0.0 0.0 0.00 0.00 0.00 59 1010.6
20260505010452 14 216 0.0 0.0 0.00 0.00 0.00 58 1010.5
20260505010218 14 221 0.0 0.0 0.00 0.00 0.00 58 1010.4
20260505005451 15 274 0.0 0.0 0.00 0.00 0.00 57 1010.3
20260505004952 15 175 0.0 1.6 0.00 0.00 0.00 56 1010.3
20260505004452 15 230 0.0 1.6 0.00 0.00 0.00 56 1010.1
20260505004214 15 228 0.0 0.0 0.00 0.00 0.00 55 1010.0
20260505003450 15 212 0.0 0.0 0.00 0.00 0.00 53 1010.0
20260505002950 15 212 0.0 0.0 0.00 0.00 0.00 53 1009.7
20260505002449 15 212 0.0 0.0 0.00 0.00 0.00 53 1009.6
20260505001955 16 216 0.0 0.0 0.00 0.00 0.00 52 1009.5
20260505001650 -17 220 0.0 0.0 0.00 0.00 0.00 1009.3
20260505000931 -17 0.0 0.0 0.00 0.00 0.00 1009.3
20260505000431 16 210 0.0 8.0 0.00 0.00 0.00 51 1009.2
20260504235932 16 210 0.0 8.0 0.00 0.00 0.00 51 1009.0
20260504235432 16 258 0.0 3.2 0.00 0.00 0.00 51 1009.2
20260504234932 16 227 0.0 0.0 0.00 0.00 0.00 51 1009.0
20260504234403 16 227 0.0 1.6 0.00 0.00 0.00 51 1008.8
20260504233902 16 203 0.0 8.0 0.00 0.00 0.00 51 1008.8
20260504233402 17 193 1.6 8.0 0.00 0.00 0.00 50 1008.7
20260504233130 17 272 0.0 1.6 0.00 0.00 0.00 49 1008.6
20260504232404 17 221 0.0 0.0 0.00 0.00 0.00 49 1008.6
20260504231903 17 295 0.0 0.0 0.00 0.00 0.00 49 1008.5
20260504231403 -17 0.0 0.0 0.00 0.00 0.00 1008.6
20260504230903 18 274 0.0 3.2 0.00 0.00 0.00 48 1008.4
20260504230402 18 274 0.0 4.8 0.00 0.00 0.00 48 1008.4
20260504225902 18 272 0.0 4.8 0.00 0.00 0.00 48 1008.3
20260504225624 18 285 0.0 0.0 0.00 0.00 0.00 48 1008.2
20260504224903 18 210 0.0 3.2 0.00 0.00 0.00 48 1008.1
20260504224402 18 193 0.0 4.8 0.00 0.00 0.00 47 1008.0
20260504224127 18 298 0.0 4.8 0.00 0.00 0.00 46 1007.9
20260504223402 18 176 0.0 6.4 0.00 0.00 0.00 46 1007.9
20260504222902 19 274 0.0 6.4 0.00 0.00 0.00 45 1007.8
20260504222626 19 268 0.0 1.6 0.00 0.00 0.00 45 1007.8
20260504221902 19 235 0.0 1.6 0.00 0.00 0.00 45 1007.9
20260504221404 19 230 0.0 1.6 0.00 0.00 0.00 44 1007.8
20260504220904 20 196 0.0 19.3 0.00 0.00 0.00 43 1007.9
20260504220402 20 259 0.0 19.3 0.00 0.00 0.00 42 1007.7
20260504215903 20 237 0.0 4.8 0.00 0.00 0.00 42 1007.7
20260504215404 20 278 0.0 4.8 0.00 0.00 0.00 41 1007.8
20260504214904 20 192 0.0 0.0 0.00 0.00 0.00 41 1007.7
20260504214402 20 192 0.0 3.2 0.00 0.00 0.00 41 1007.7
20260504213902 20 298 0.0 3.2 0.00 0.00 0.00 41 1007.7
20260504213402 20 210 0.0 6.4 0.00 0.00 0.00 39 1007.7
20260504213341 21 185 0.0 6.4 0.00 0.00 0.00 39 1007.7
20260504212403 21 192 0.0 1.6 0.00 0.00 0.00 39 1007.7
20260504211903 21 282 0.0 3.2 0.00 0.00 0.00 38 1007.6
20260504211403 21 212 0.0 3.2 0.00 0.00 0.00 38 1007.5
20260504210902 21 223 0.0 0.0 0.00 0.00 0.00 35 1007.4
20260504210402 21 223 0.0 4.8 0.00 0.00 0.00 35 1007.5
20260504205903 22 269 0.0 4.8 0.00 0.00 0.00 35 1007.5
20260504205403 22 271 0.0 1.6 0.00 0.00 0.00 35 1007.2
20260504204902 22 307 0.0 1.6 0.00 0.00 0.00 36 1007.3
20260504204632 21 233 0.0 0.0 0.00 0.00 0.00 35 1007.3
20260504203902 21 233 0.0 0.0 0.00 0.00 0.00 35 1007.4
20260504203402 22 316 0.0 0.0 0.00 0.00 0.00 34 1007.5
20260504202904 22 316 0.0 1.6 0.00 0.00 0.00 34 1007.6
20260504202402 21 252 0.0 1.6 0.00 0.00 0.00 34 1007.4
20260504201902 21 210 0.0 1.6 0.00 0.00 0.00 34 1007.4
20260504201403 21 210 0.0 1.6 0.00 0.00 0.00 34 1007.4
20260504200902 21 228 0.0 11.3 0.00 0.00 0.00 34 1007.5
20260504200402 21 323 1.6 11.3 0.00 0.00 0.00 34 1007.6
20260504195901 21 326 0.0 9.7 0.00 0.00 0.00 35 1007.7
20260504195402 21 237 0.0 1.6 0.00 0.00 0.00 33 1007.6
20260504194903 22 269 0.0 4.8 0.00 0.00 0.00 32 1007.6
20260504194402 22 310 0.0 4.8 0.00 0.00 0.00 35 1007.6
20260504193903 21 293 0.0 3.2 0.00 0.00 0.00 33 1007.5
20260504193621 21 333 0.0 14.5 0.00 0.00 0.00 34 1007.6
20260504193104 21 312 0.0 3.2 0.00 0.00 0.00 33 1007.6
20260504193052 21 250 1.6 14.5 0.00 0.00 0.00 34 1007.5
20260504191902 21 209 0.0 1.6 0.00 0.00 0.00 33 1007.7
20260504191403 21 228 1.6 9.7 0.00 0.00 0.00 35 1007.6
20260504190902 21 228 1.6 9.7 0.00 0.00 0.00 35 1007.5
20260504190403 21 279 0.0 9.7 0.00 0.00 0.00 34 1007.7
20260504190122 21 197 1.6 9.7 0.00 0.00 0.00 34 1007.8
20260504185402 21 281 1.6 9.7 0.00 0.00 0.00 33 1007.7
20260504185129 21 317 1.6 8.0 0.00 0.00 0.00 34 1007.8
20260504184402 21 303 0.0 1.6 0.00 0.00 0.00 34 1007.9
20260504183903 -17 0.0 0.0 0.00 0.00 0.00 1007.8
20260504183402 -17 313 0.0 0.0 0.00 0.00 0.00 1007.9
20260504182902 21 313 0.0 1.6 0.00 0.00 0.00 34 1007.9
20260504182403 21 200 0.0 19.3 0.00 0.00 0.00 34 1008.0
20260504181903 21 230 1.6 19.3 0.00 0.00 0.00 34 1008.0
20260504181402 21 290 0.0 11.3 0.00 0.00 0.00 32 1008.1
20260504180903 21 0 1.6 8.0 0.00 0.00 0.00 33 1008.2
20260504180403 21 265 0.0 8.0 0.00 0.00 0.00 35 1008.0
20260504175901 21 185 0.0 6.4 0.00 0.00 0.00 34 1008.3
20260504175403 21 341 1.6 11.3 0.00 0.00 0.00 35 1008.3
20260504174847 21 334 3.2 11.3 0.00 0.00 0.00 34 1008.4
20260504174345 20 266 0.0 4.8 0.00 0.00 0.00 34 1008.4
20260504173832 20 269 0.0 3.2 0.00 0.00 0.00 33 1008.2
20260504173811 20 268 0.0 6.4 0.00 0.00 0.00 33 1008.4
20260504173228 20 197 0.0 6.4 0.00 0.00 0.00 35 1008.4
20260504173221 20 220 0.0 0.0 0.00 0.00 0.00 35 1008.4
20260504171814 20 220 0.0 0.0 0.00 0.00 0.00 35 1008.4
20260504171315 20 244 1.6 0.0 0.00 0.00 0.00 36 1008.4
20260504170811 20 244 1.6 8.0 0.00 0.00 0.00 36 1008.4
20260504170314 20 244 1.6 35.4 0.00 0.00 0.00 35 1008.3
20260504160305 18 293 1.6 14.5 0.00 0.00 0.00 36 1009.1
20260504150803 18 265 0.0 1.6 0.00 0.03 0.00 38 1009.8
20260504150520 17 334 3.2 16.1 0.00 0.03 0.00 41 1010.0
20260504150247 17 334 3.2 16.1 0.00 0.03 0.00 41 1009.9
20260504141302 16 313 0.0 3.2 0.00 0.03 0.00 43 1010.2
20260504141031 16 313 0.0 17.7 0.00 0.03 0.00 43 1010.2
20260504140302 16 298 3.2 17.7 0.00 0.03 0.00 43 1010.2
20260504130802 14 282 0.0 1.6 0.00 0.03 0.00 49 1010.9
20260504130302 13 295 0.0 1.6 0.00 0.03 0.00 51 1010.9
20260504120301 10 316 0.0 1.6 0.00 0.03 0.00 59 1011.2
20260504110303 8 234 0.0 0.0 0.00 0.03 0.00 61 1011.2
20260504100303 7 245 0.0 0.0 0.00 0.03 0.00 63 1011.1
20260504081726 7 283 0.0 0.0 0.00 0.03 0.00 60 1010.7
20260504081227 7 283 0.0 0.0 0.00 0.03 0.00 61 1010.6
20260504080726 7 283 0.0 0.0 0.00 0.03 0.00 60 1010.6
20260504080226 7 283 0.0 0.0 0.00 0.03 0.00 60 1010.6
20260504070216 6 272 0.0 0.0 0.00 0.03 0.00 60 1010.5
20260504060203 6 272 0.0 0.0 0.00 0.03 0.00 62 1010.6
20260504050702 6 272 0.0 0.0 0.00 0.03 0.00 63 1010.7
20260504050204 6 272 0.0 0.0 0.00 0.03 0.00 63 1010.6
20260504045935 6 272 0.0 0.0 0.00 0.03 0.00 63 1010.7
20260504045203 6 272 0.0 1.6 0.00 0.03 0.00 62 1010.7
20260504044702 6 272 0.0 1.6 0.00 0.03 0.00 63 1010.7
20260504044204 5 272 0.0 0.0 0.00 0.03 0.00 62 1010.7
20260504043702 5 272 0.0 0.0 0.00 0.03 0.00 61 1010.6
20260504043203 5 272 0.0 0.0 0.00 0.03 0.00 62 1010.6
20260504042701 5 272 0.0 0.0 0.00 0.03 0.00 62 1010.7
20260504042201 5 268 0.0 0.0 0.00 0.03 0.00 64 1010.6
20260504041701 5 268 0.0 0.0 0.00 0.03 0.00 65 1010.6
20260504041201 5 268 0.0 0.0 0.00 0.03 0.00 64 1010.6
20260504040701 5 268 0.0 0.0 0.00 0.03 0.00 64 1010.5
20260504040425 5 268 0.0 0.0 0.00 0.03 0.00 63 1010.4
20260504035701 5 268 0.0 0.0 0.00 0.03 0.03 63 1010.3
20260504035201 5 268 0.0 0.0 0.00 0.03 0.03 64 1010.4
20260504034702 5 268 0.0 0.0 0.00 0.03 0.03 63 1010.3
20260504034201 5 268 0.0 0.0 0.00 0.03 0.03 64 1010.3
20260504033701 5 268 0.0 0.0 0.00 0.03 0.03 63 1010.3
20260504033159 5 268 0.0 0.0 0.00 0.03 0.03 63 1010.3
20260504032928 5 268 0.0 0.0 0.00 0.03 0.03 64 1010.2
20260504032159 5 268 0.0 0.0 0.00 0.03 0.03 64 1010.1
20260504031700 5 268 0.0 0.0 0.00 0.03 0.03 65 1010.0
20260504031200 5 268 0.0 0.0 0.00 0.03 0.03 65 1010.1
20260504030700 5 317 0.0 0.0 0.00 0.03 0.03 65 1010.0
20260504030159 5 317 0.0 0.0 0.00 0.03 0.03 65 1010.0
20260504025659 5 317 0.0 0.0 0.00 0.03 0.03 64 1009.9
20260504025200 5 317 0.0 0.0 0.00 0.03 0.03 63 1010.0